RH
25 26 28 32 40 49 58 62 69 65 51 38 51 50 53 54 57 63 68 73 78 82 84 89 92 96 99 99 97 94 93 91 91 88 86 83 92 96
19 17 20 26 31 40 41 44 48 57 57 39 41 45 51 57 59 61 59 60 61 69 78 81 87 87 90 95 98 96 95 95 95 94 90 93 85 92
16 19 26 26 29 30 33 36 39 41 47 35 41 45 45 39 43 57 62 67 67 63 65 70 74 81 84 85 90 94 98 97 97 96 95 94 95 86
23 28 28 30 30 29 31 30 31 33 39 49 39 34 34 33 38 40 41 46 53 65 65 67 70 73 82 84 86 86 89 94 94 98 97 96 95 93
32 32 29 26 23 25 25 25 26 31 46 48 30 22 21 21 26 30 37 44 47 54 61 64 69 71 77 83 89 86 82 85 91 93 95 99 96 98
33 32 28 27 27 28 28 31 33 39 38 39 38 35 34 29 27 27 29 39 44 47 51 54 54 53 52 63 67 82 85 84 85 88 92 95 97 96
27 25 23 23 26 28 35 33 37 37 36 36 35 34 32 31 30 29 34 34 40 51 57 56 53 48 51 47 50 60 71 81 89 87 91 95 99 97
21 20 22 23 27 32 35 36 37 44 36 34 35 34 30 32 32 34 37 40 38 47 56 57 58 59 55 50 52 55 61 67 77 79 89 90 98 98
22 23 25 29 34 35 35 37 38 39 40 42 41 37 38 35 33 37 45 48 44 43 55 52 56 51 50 43 39 52 54 59 75 75 85 94 98 99
30 32 35 35 36 42 46 46 44 35 31 34 40 44 46 46 53 54 52 52 49 46 53 51 56 53 54 51 45 44 52 57 68 76 88 97 99 99
30 31 40 40 41 49 52 49 44 34 29 32 38 44 47 47 53 61 61 66 58 54 54 56 52 54 52 49 47 54 54 57 69 80 94 98 98 98
33 39 38 43 48 52 52 52 46 33 33 33 36 40 52 62 73 76 75 72 68 59 59 63 58 57 56 51 52 55 60 62 81 87 96 99 98 98
45 37 36 49 51 48 47 48 43 40 38 43 47 60 78 84 87 86 81 77 74 69 68 69 62 63 63 60 62 73 72 71 93 98 96 98 98 98
43 41 50 52 46 42 43 43 40 41 46 52 73 83 85 87 87 88 87 84 81 75 84 82 72 72 74 76 82 83 81 92 97 98 97 97 97 97
47 54 55 47 42 39 42 37 35 42 51 73 86 87 89 90 93 91 87 87 91 95 94 91 94 95 96 97 98 98 95 97 98 97 97 97 97 97
51 57 51 44 43 44 39 30 36 48 76 90 92 97 96 95 91 90 92 96 97 97 96 96 97 97 97 97 97 97 97 97 97 97 97 97 97 97
53 51 46 45 41 41 34 32 41 68 87 97 98 96 92 92 93 94 97 97 97 97 97 97 97 98 98 97 97 97 97 97 97 97 97 97 97 91
48 50 51 45 44 41 35 41 66 85 97 97 96 94 93 93 96 96 97 97 97 97 97 97 97 97 97 97 97 97 97 97 97 96 91 81 74 68
47 53 50 45 45 41 46 64 82 98 97 97 97 94 96 97 97 97 97 97 97 97 96 89 81 74 69 70 84 81 69 58 62 60 53 48 44 37
52 54 48 46 45 47 58 78 97 98 97 98 97 97 97 97 97 97 97 97 92 78 68 62 58 53 49 46 44 41 39 36 36 39 38 35 33 34
53 50 47 46 47 54 71 96 97 97 97 98 97 97 97 97 97 97 88 78 67 59 54 55 56 57 54 49 45 44 44 41 40 41 43 48 52 57
54 49 45 46 50 61 93 98 97 98 98 98 97 98 97 93 83 76 69 63 63 60 59 60 61 65 71 77 77 72 69 69 70 69 69 69 67 64
52 47 45 48 53 86 98 98 97 97 97 97 97 86 73 68 65 61 57 59 65 75 85 88 81 67 60 59 59 58 56 54 55 54 53 53 55 60